Beaufort, SC

5:58 PM EST on January 22, 2018 (GMT -0500)
Beaufort

Weather History for KARW - July, 2013

Change the Weather History Date:

Friday, July 12, 2013

  Actual Average (KNBC) Record (KNBC)
Temperature  
Mean Temperature 76 °F -  
Max Temperature 80 °F 91 °F 99 °F (1932)
Min Temperature 73 °F 74 °F 60 °F (1953)
Cooling Degree Days 12    
Growing Degree Days 26 (Base 50)    
Moisture  
Dew Point 75 °F    
Average Humidity 94    
Maximum Humidity 100    
Minimum Humidity 79    
Precipitation  
Precipitation 0.00 in - - ()
Sea Level Pressure  
Sea Level Pressure 29.92 in    
Wind  
Wind Speed 2 mph (SE)    
Max Wind Speed 7 mph    
Max Gust Speed -    
Visibility 8 miles    
Events Rain , Thunderstorm    
Averages and records for this station are not official NWS values.
T = Trace of Precipitation, MM = Missing Value Source: NWS Daily Summary

Daily Weather History Graph

Daily Weather History Graph

Search for Another Location

Airport or City:

Trip Planner

Search our weather history database for the weather conditions in past years. The results will help you decide how hot, cold, wet, or windy it might be!

Date:

Astronomy

Jul. 12, 2013 Rise Set
Actual Time 6:24 AM EDT 8:31 PM EDT
Civil Twilight 5:56 AM EDT 8:59 PM EDT
Nautical Twilight 5:22 AM EDT 9:33 PM EDT
Astronomical Twilight 4:45 AM EDT 10:09 PM EDT
Moon 10:22 AM EDT (7/12) 11:00 PM EDT (7/12)
Length of Visible Light 15h 02m
Length of Day
14h 06m
Waxing Crescent, 17% of the Moon is Illuminated
Jul 12
Waxing Crescent
Jul 15
First Quarter
Jul 22
Full
Jul 29
Last Quarter
Aug 6
New

Hourly Weather History & Observations

Time (EDT) Temp. Heat Index Dew Point Humidity Pressure Visibility Wind Dir Wind Speed Gust Speed Precip Events Conditions
12:15 AM 77.0 °F - 71.6 °F 83% 29.93 in 10.0 mi West 6.9 mph - N/A Thunderstorm Thunderstorm
12:35 AM 77.0 °F - 71.6 °F 83% 29.93 in 7.0 mi WSW 4.6 mph - N/A Thunderstorm Mostly Cloudy
12:55 AM 77.0 °F - 73.4 °F 89% 29.93 in 10.0 mi Calm Calm - N/A   Light Drizzle
1:15 AM 77.0 °F - 73.4 °F 89% 29.93 in 10.0 mi Calm Calm - N/A Rain Light Rain
1:35 AM 77.0 °F - 73.4 °F 89% 29.92 in 10.0 mi Calm Calm - N/A   Light Drizzle
1:55 AM 77.0 °F - 73.4 °F 89% 29.92 in 7.0 mi Calm Calm - N/A   Mostly Cloudy
2:15 AM 77.0 °F - 73.4 °F 89% 29.92 in 7.0 mi West 3.5 mph - N/A   Scattered Clouds
2:35 AM 77.0 °F - 73.4 °F 89% 29.91 in 10.0 mi West 5.8 mph - N/A   Scattered Clouds
2:55 AM 77.0 °F - 73.4 °F 89% 29.91 in 10.0 mi Calm Calm - N/A   Light Drizzle
3:15 AM 77.0 °F - 73.4 °F 89% 29.90 in 10.0 mi Calm Calm - N/A   Light Drizzle
3:35 AM 77.0 °F - 73.4 °F 89% 29.90 in 7.0 mi Calm Calm - N/A   Scattered Clouds
3:55 AM 75.2 °F - 73.4 °F 94% 29.89 in 7.0 mi Calm Calm - N/A   Scattered Clouds
4:15 AM 75.2 °F - 75.2 °F 100% 29.88 in 7.0 mi Calm Calm - N/A   Scattered Clouds
4:35 AM 73.4 °F - 73.4 °F 100% 29.88 in 7.0 mi Calm Calm - N/A   Clear
4:55 AM 73.4 °F - 73.4 °F 100% 29.89 in 10.0 mi Calm Calm - N/A   Clear
5:15 AM 73.4 °F - 73.4 °F 100% 29.89 in 7.0 mi Calm Calm - N/A   Clear
5:35 AM 75.2 °F - 75.2 °F 100% 29.89 in 10.0 mi Calm Calm - N/A   Scattered Clouds
5:55 AM 75.2 °F - 75.2 °F 100% 29.90 in 10.0 mi Calm Calm - N/A   Mostly Cloudy
6:15 AM 75.2 °F - 75.2 °F 100% 29.90 in 10.0 mi Calm Calm - N/A   Scattered Clouds
6:35 AM 75.2 °F - 75.2 °F 100% 29.90 in 7.0 mi Calm Calm - N/A   Scattered Clouds
6:55 AM 75.2 °F - 75.2 °F 100% 29.91 in 7.0 mi Calm Calm - N/A   Mostly Cloudy
7:15 AM 75.2 °F - 75.2 °F 100% 29.91 in 7.0 mi Calm Calm - N/A Thunderstorm Mostly Cloudy
7:35 AM 77.0 °F - 75.2 °F 94% 29.91 in 7.0 mi Calm Calm - N/A Thunderstorm Scattered Clouds
7:55 AM 77.0 °F - 75.2 °F 94% 29.91 in 7.0 mi Calm Calm - N/A   Scattered Clouds
8:15 AM 77.0 °F - 75.2 °F 94% 29.91 in 10.0 mi Calm Calm - N/A Thunderstorm Scattered Clouds
8:35 AM 77.0 °F - 75.2 °F 94% 29.92 in 7.0 mi Calm Calm - N/A Rain Rain
8:55 AM 77.0 °F - 77.0 °F 100% 29.92 in 7.0 mi Calm Calm - N/A Rain Light Rain
9:15 AM 77.0 °F - 77.0 °F 100% 29.93 in 10.0 mi Calm Calm - N/A   Drizzle
9:35 AM 77.0 °F - 77.0 °F 100% 29.93 in 10.0 mi Calm Calm - N/A Rain , Thunderstorm Light Thunderstorms and Rain
9:55 AM 77.0 °F - 77.0 °F 100% 29.93 in 10.0 mi Calm Calm - N/A   Light Drizzle
10:15 AM 77.0 °F - 77.0 °F 100% 29.93 in 7.0 mi Calm Calm - N/A Thunderstorm Unknown
10:35 AM 77.0 °F - 77.0 °F 100% 29.93 in 10.0 mi Calm Calm - N/A Thunderstorm Unknown
10:55 AM 77.0 °F - 77.0 °F 100% 29.93 in 7.0 mi Calm Calm - N/A Rain , Thunderstorm Light Thunderstorms and Rain
11:15 AM 77.0 °F - 77.0 °F 100% 29.93 in 5.0 mi Calm Calm - N/A   Overcast
11:35 AM 77.0 °F - 77.0 °F 100% 29.94 in 7.0 mi SSW 3.5 mph - N/A Thunderstorm Overcast
11:55 AM 78.8 °F - 77.0 °F 94% 29.94 in 10.0 mi WSW 3.5 mph - N/A   Drizzle
12:15 PM 77.0 °F - 77.0 °F 100% 29.93 in 10.0 mi Calm Calm - N/A Rain Light Rain
12:35 PM 78.8 °F - 77.0 °F 94% 29.93 in 10.0 mi Calm Calm - N/A   Light Drizzle
12:55 PM 78.8 °F - 77.0 °F 94% 29.93 in 7.0 mi Calm Calm - N/A   Mostly Cloudy
1:15 PM 78.8 °F - 77.0 °F 94% 29.93 in 10.0 mi Calm Calm - N/A Rain Light Rain
1:35 PM 77.0 °F - 77.0 °F 100% 29.93 in 5.0 mi Calm Calm - N/A Rain Rain
1:55 PM 78.8 °F - 77.0 °F 94% 29.92 in 10.0 mi Calm Calm - N/A Rain Light Rain
2:15 PM 78.8 °F - 77.0 °F 94% 29.92 in 5.0 mi Calm Calm - N/A   Mostly Cloudy
2:35 PM 78.8 °F - 77.0 °F 94% 29.91 in 5.0 mi Calm Calm - N/A   Scattered Clouds
2:55 PM 78.8 °F - 77.0 °F 94% 29.92 in 7.0 mi NNE 4.6 mph - N/A   Scattered Clouds
3:15 PM 78.8 °F - 77.0 °F 94% 29.93 in 7.0 mi NE 3.5 mph - N/A   Scattered Clouds
3:35 PM 78.8 °F - 77.0 °F 94% 29.92 in 7.0 mi Calm Calm - N/A   Mostly Cloudy
3:55 PM 80.6 °F 87.1 °F 77.0 °F 89% 29.91 in 7.0 mi NE 5.8 mph - N/A   Mostly Cloudy
4:15 PM 80.6 °F 86.2 °F 75.2 °F 84% 29.91 in 7.0 mi Calm Calm - N/A   Overcast
4:35 PM 80.6 °F 85.4 °F 73.4 °F 79% 29.91 in 7.0 mi ENE 3.5 mph - N/A Thunderstorm Mostly Cloudy
4:55 PM 80.6 °F 86.2 °F 75.2 °F 84% 29.91 in 7.0 mi East 3.5 mph - N/A   Scattered Clouds
5:15 PM 80.6 °F 85.4 °F 73.4 °F 79% 29.90 in 7.0 mi East 4.6 mph - N/A Thunderstorm Scattered Clouds
5:35 PM 78.8 °F - 75.2 °F 89% 29.91 in 10.0 mi Calm Calm - N/A Rain Light Rain
5:55 PM 78.8 °F - 75.2 °F 89% 29.90 in 10.0 mi Calm Calm - N/A   Light Drizzle
6:15 PM 78.8 °F - 77.0 °F 94% 29.91 in 7.0 mi Calm Calm - N/A   Mostly Cloudy
6:35 PM 78.8 °F - 77.0 °F 94% 29.91 in 7.0 mi East 3.5 mph - N/A Thunderstorm Overcast
6:55 PM 78.8 °F - 77.0 °F 94% 29.91 in 7.0 mi ESE 3.5 mph - N/A Thunderstorm Overcast
7:15 PM 78.8 °F - 75.2 °F 89% 29.91 in 7.0 mi SE 3.5 mph - N/A Thunderstorm Mostly Cloudy
7:35 PM 78.8 °F - 75.2 °F 89% 29.92 in 7.0 mi Calm Calm - N/A   Mostly Cloudy
7:55 PM 77.0 °F - 75.2 °F 94% 29.92 in 7.0 mi SSE 5.8 mph - N/A   Mostly Cloudy
8:15 PM 77.0 °F - 73.4 °F 89% 29.92 in 7.0 mi Calm Calm - N/A Thunderstorm Scattered Clouds
8:35 PM 77.0 °F - 73.4 °F 89% 29.93 in 7.0 mi Calm Calm - N/A   Mostly Cloudy
8:55 PM 77.0 °F - 73.4 °F 89% 29.94 in 7.0 mi Calm Calm - N/A Thunderstorm Thunderstorm
9:15 PM 77.0 °F - 73.4 °F 89% 29.94 in 7.0 mi Calm Calm - N/A   Overcast
9:35 PM 77.0 °F - 75.2 °F 94% 29.94 in 10.0 mi East 4.6 mph - N/A Rain Rain
9:55 PM 73.4 °F - 73.4 °F 100% 29.96 in 10.0 mi SE 3.5 mph - N/A Rain Light Rain
10:15 PM 73.4 °F - 73.4 °F 100% 29.96 in 10.0 mi SE 3.5 mph - N/A Rain , Thunderstorm Thunderstorms and Rain
10:35 PM 73.4 °F - 73.4 °F 100% 29.96 in 10.0 mi SE 3.5 mph - N/A Rain Light Rain
10:55 PM 73.4 °F - 73.4 °F 100% 29.96 in 10.0 mi SE 4.6 mph - N/A Rain Light Rain
11:15 PM 73.4 °F - 73.4 °F 100% 29.96 in 10.0 mi Calm Calm - N/A Rain Light Rain
11:35 PM 73.4 °F - 73.4 °F 100% 29.95 in 10.0 mi Calm Calm - N/A Rain Light Rain
11:55 PM 73.4 °F - 73.4 °F 100% 29.95 in 7.0 mi Calm Calm - N/A Rain Rain